Zurück zum Katalog

THOR ABLESTAR DEB

AktivLEO
NORAD 119·DEBRIS·🇺🇸 United States

Gestartet Jun 29, 1961 von Cape Canaveral Space Force Station

Loading…

Nächste Überflüge (nächste 24 Stunden)

TLE

AktuellSource: Space-Track

Epoche: Sep 14, 2026, 10:17 UTC

1 00119U 61015D   26257.42877924  .00000340  00000-0  16377-3 0  9993
2 00119  66.7267 156.3381 0102433 198.6821 161.0506 14.27424170371059

Verfolge THOR ABLESTAR DEB in Echtzeit mit AllMySat

Download on the App Store